Skip Page Navigation
NASA JPL Caltech
NASA Logo - Jet Propulsion Laboratory + View the NASA Portal
+ Center for Near-Earth Object Studies
JPL Home Earth Solar System Stars & Galaxies Technology
JPL Solar System Dynamics
BODIES ORBITS EPHEMERIDES TOOLS PHYSICAL DATA DISCOVERY FAQ SITE MAP
JPL Small-Body Database Browser
Search: [ help ]  
(2020 OG3)
Classification: Apollo [NEO]          SPK-ID: 54049349
Ephemeris | Orbit Diagram | Orbital Elements | Mission Design | Physical Parameters | Close-Approach Data ]

[ hide orbit diagram ]

For accurate long-term ephemerides, please instead use our Horizons system.This orbit viewer was implemented using two-body methods, and hence should not be used for determining accurate long-term trajectories (over several years or decades) or planetary encounter circumstances.


Orbital Elements at Epoch 2459200.5 (2020-Dec-17.0) TDB
Reference: JPL 8 (heliocentric ecliptic J2000)
 Element Value Uncertainty (1-sigma)   Units 
e .2133275803481415 0.00015236  
a 1.18569778940832 0.00018771 au
q .9327557489697025 3.307e-05 au
i 3.830314154181612 0.0024323 deg
node 308.6423294501182 0.00067585 deg
peri 64.44741070901276 0.0055383 deg
M 62.21462527776877 0.0075888 deg
tp 2459119.001534615285
(2020-Sep-26.50153462)
0.0094253 TDB
period 471.5844129496247
1.29
0.11198
0.0003066
d
yr
n .7633840095526135 0.00018128 deg/d
Q 1.438639829846937 0.00022775 au
  Orbit Determination Parameters
   # obs. used (total)      34  
   data-arc span      9 days  
   first obs. used      2020-07-23  
   last obs. used      2020-08-01  
   planetary ephem.      DE431  
   SB-pert. ephem.      SB431-N16  
   condition code      6  
   norm. resid. RMS      .58601  
   source      ORB  
   producer      Otto Matic  
   solution date      2020-Oct-11 07:08:44  

Additional Information
 Earth MOID = .0074821 au 
 Jupiter MOID = 4.02462 au 
 T_jup = 5.319 
[ hide covariance matrix ]
Orbital Elements at Epoch 2459056.5 (2020-Jul-26.0) TDB
Reference: JPL 8 (heliocentric ecliptic J2000)
 Element Value Uncertainty (1-sigma)   Units 
e .2151520679105964 0.00015046  
q .9343307154489914 3.5417e-05 au
tp 2459118.399281162231
(2020-Sep-25.89928116)
0.0081488 TDB
node 308.7416026400386 0.00047747 deg
peri 63.62227726858294 0.0038926 deg
i 3.856191254319308 0.0023938 deg
  Orbit Determination Parameters
   # obs. used (total)      34  
   data-arc span      9 days  
   first obs. used      2020-07-23  
   last obs. used      2020-08-01  
   planetary ephem.      DE431  
   SB-pert. ephem.      SB431-N16  
   condition code      6  
   norm. resid. RMS      .58601  
   source      ORB  
   producer      Otto Matic  
   solution date      2020-Oct-11 07:08:44  

Additional Information
 Jupiter MOID = 4.02462 au 
 T_jup = 5.319 
Orbit Covariance (6×6)
  e q tp node peri i
e 2.263752448336837E-8 -5.319688140895592E-9 -1.22390221768488E-6 7.179285423765546E-8 -5.771883975462828E-7 3.601650727327367E-7
q -5.319688140895592E-9 1.254394910569336E-9 2.866100602831668E-7 -1.685120300396645E-8 1.342684127286219E-7 -8.463198790278657E-8
tp -1.22390221768488E-6 2.866100602831668E-7 6.640340899814001E-5 -3.886022617401819E-6 3.152416164143746E-5 -1.947342967281706E-5
node 7.179285423765546E-8 -1.685120300396645E-8 -3.886022617401819E-6 2.279756920009956E-7 -1.836913229733154E-6 1.142142853680329E-6
peri -5.771883975462828E-7 1.342684127286219E-7 3.152416164143746E-5 -1.836913229733154E-6 1.515201474869626E-5 -9.184447212149398E-6
i 3.601650727327367E-7 -8.463198790278657E-8 -1.947342967281706E-5 1.142142853680329E-6 -9.184447212149398E-6 5.730420226304491E-6

Ephemeris | Orbit Diagram | Orbital Elements | Mission Design | Physical Parameters | Close-Approach Data ]

Physical Parameter Table
Parameter Symbol Value Units Sigma Reference Notes
absolute magnitude H 26.8   .4327 E2020T75 autocmod 2.8

[ hide close-approach data ]
Close-Approach Data   ...sorted by Date/Time (TDB)
Date/Time (TDB) Time Uncertainty
(days_HH:MM)
Body Nominal Distance (au) Minimum Distance (au) Maximum Distance (au) V-relative (km/s) V-infinity (km/s) JD (TDB) Time Uncertainty (minutes) Semi-major axis (km) Semi-minor axis (km) range-LOV angle (deg) N-sigma BP Orbit Ref. Reference Modified
1968-May-09 22:26 1_03:35 Earth 0.395549225126822 0.387033915141977 0.404086596927694 6.65311439873503 6.65210184080997 2439986.434417381 1655.44146473581 449973.544455362 382.740771911646 -19.144926689734 31222.7027641263 T 8 CATAB v2.0f-lin.ifort 2020-Oct-11 07:08:45 2020-Oct-11 07:09
1968-Dec-14 16:55 03:17 Earth 0.334957266994529 0.313210472671097 0.35678210632851 15.142162506938 15.1416371643812 2440205.204966392 196.765250334444 1115890.46246763 327.042505059952 -13.1912004478596 26699.6685197758 T 8 CATAB v2.0f-lin.ifort 2020-Oct-11 07:08:45 2020-Oct-11 07:09
1981-Dec-07 07:51 7_06:14 Earth 0.174016602436064 0.0702509325138774 0.296930125688294 10.1828270048838 10.1813232211765 2444945.826796142 10454.3065171396 6360468.77615491 188.133574065017 -20.3926604522039 31506.7309970988 T 8 CATAB v2.0f-lin.ifort 2020-Oct-11 07:08:45 2020-Oct-11 07:09
1985-Jul-18 23:15 5_06:10 Earth 0.253004320123793 0.155574922702995 0.350447068056153 12.737107185307 12.7362803334369 2446265.468533335 7570.17202344981 4859607.28284427 81.0522425388711 -1.21798901503897 7672.03185085826 T 8 CATAB v2.0f-lin.ifort 2020-Oct-11 07:08:45 2020-Oct-11 07:09
1986-Feb-12 10:30 9_06:28 Earth 0.366717683525464 0.33612761916385 0.39877800506442 6.75768618170882 6.75661091292568 2446473.937367494 13348.1166611924 1944811.35791685 235.290105382687 36.4300398350028 91142.6807648753 T 8 CATAB v2.0f-lin.ifort 2020-Oct-11 07:08:45 2020-Oct-11 07:09
1990-Apr-11 00:51 4_18:35 Earth 0.446850784437293 0.444707523401374 0.449311479086638 7.73785845572556 7.7370878172683 2447992.535640537 6874.94426328772 604975.320786376 456.54945665869 -79.062761677018 79964.5873056503 T 8 CATAB v2.0f-lin.ifort 2020-Oct-11 07:08:45 2020-Oct-11 07:09
1994-Jun-30 17:03 7_08:08 Earth 0.243171028579959 0.227034608867882 0.260020429892268 3.2250996674511 3.22170039230165 2449534.210239034 10567.550142923 1052748.90668478 129.566705094433 -38.8838208075504 57525.5310247787 T 8 CATAB v2.0f-lin.ifort 2020-Oct-11 07:08:45 2020-Oct-11 07:09
1994-Nov-18 22:30 7_02:32 Earth 0.0667820126104776 0.0629775574486262 0.0762621518948434 4.50880047061736 4.49994281812926 2449675.437472392 10232.0955158974 1036431.76163282 34.3806227009513 70.4519769446297 57868.2600667293 T 8 CATAB v2.0f-lin.ifort 2020-Oct-11 07:08:45 2020-Oct-11 07:09
1998-Jul-09 16:51 00:59 Earth 0.435585530049992 0.435037356793027 0.436133948764086 18.0152306103655 18.0148910607997 2451004.201765866 58.9675981553054 31834.19804603 65.1666957643784 30.8142684646887 769115.840290256 T 8 CATAB v2.0f-lin.ifort 2020-Oct-11 07:08:45 2020-Oct-11 07:09
1999-Mar-01 21:24 13:30 Earth 0.414590037323036 0.414448856585646 0.41474307367878 7.48316185448063 7.48230297291767 2451239.391687218 809.738258324398 111132.097179173 562.430402047409 -86.2255380380826 71607.8571065933 T 8 CATAB v2.0f-lin.ifort 2020-Oct-11 07:08:45 2020-Oct-11 07:09
2003-Apr-26 14:50 2_18:58 Earth 0.426786949851207 0.421085913749618 0.432615089378018 7.31290849469619 7.31205473344825 2452756.117855631 4018.05468803942 466418.866244095 481.09506607495 -51.957456222161 60016.6410759626 T 8 CATAB v2.0f-lin.ifort 2020-Oct-11 07:08:45 2020-Oct-11 07:09
2003-Dec-23 01:02 1_03:50 Earth 0.485878979182056 0.453094001323542 0.51870071138809 19.7301135103873 19.7298355661197 2452996.543167387 1670.34178829742 1649288.80501901 545.608983791702 -7.33328723269636 14178.0397268684 T 8 CATAB v2.0f-lin.ifort 2020-Oct-11 07:08:45 2020-Oct-11 07:09
2012-Mar-12 19:35 3_00:16 Earth 0.438589893896173 0.433111590129067 0.444236514828703 7.80551060765797 7.80473225919499 2455999.315625815 4335.75174559719 510432.663321034 28.5643597455799 57.0819905421677 606222.792347863 T 8 CATAB v2.0f-lin.ifort 2020-Oct-11 07:08:45 2020-Oct-11 07:09
2016-May-05 13:57 1_17:52 Earth 0.406944770162969 0.403724859447137 0.410196736816481 6.90877166449114 6.90782388820982 2457514.080954808 2512.03169805919 241828.966106072 418.65853656469 -48.1599272870073 57769.4897919273 T 8 CATAB v2.0f-lin.ifort 2020-Oct-11 07:08:45 2020-Oct-11 07:09
2016-Dec-17 05:39 19:11 Earth 0.381365595680888 0.364158257407222 0.39858912810567 16.5600956199193 16.5596737160215 2457739.735389075 1151.17763101788 867362.855131233 440.669511232544 -8.21973286191395 14891.8644527209 T 8 CATAB v2.0f-lin.ifort 2020-Oct-11 07:08:45 2020-Oct-11 07:09
2020-Aug-04 22:27 < 00:01 Earth 0.0182256812265 0.0181903625722285 0.0182609987650374 5.99375890656098 5.9693180915252 2459066.435258052 0.214695773389755 1746.69727477984 12.9087774665475 0.364810893448129 870.668043518685 T 8 CATAB v2.0f-lin.ifort 2020-Oct-11 07:08:45 2020-Oct-11 07:09
2021-Jan-15 17:38 01:19 Earth 0.265941324934027 0.265414070174639 0.266468614760534 4.85769297567727 4.85563002571764 2459230.234772736 79.4739490223626 26730.9278605513 838.371300251059 -10.5651098107813 5374.69946784644 T 8 CATAB v2.0f-lin.ifort 2020-Oct-11 07:08:45 2020-Oct-11 07:09
2025-Apr-02 17:02 1_14:50 Earth 0.44469085372596 0.443342052989312 0.446084535682801 7.81383309992106 7.81306624829922 2460768.209812331 2329.55267139331 233051.81171733 525.354096345229 -72.9426277791559 71323.0593543514 T 8 CATAB v2.0f-lin.ifort 2020-Oct-11 07:08:45 2020-Oct-11 07:09
2034-Mar-15 09:43 5_06:37 Earth 0.43286950587516 0.427335451718621 0.438896503295165 7.75120493971043 7.75041077900727 2464036.905143104 7597.20532376529 783510.300092335 178.595156090953 68.4046327703803 183439.042519193 T 8 CATAB v2.0f-lin.ifort 2020-Oct-11 07:08:45 2020-Oct-11 07:09
2038-Dec-09 13:58 4_21:17 Earth 0.187814008059987 0.104137640547984 0.277152770422856 10.6400733338806 10.6387399138693 2465767.081870852 7037.41470478497 4612292.57236411 189.265630428857 -18.3325831015859 31270.5096572047 T 8 CATAB v2.0f-lin.ifort 2020-Oct-11 07:08:45 2020-Oct-11 07:09
